Greenville, ME

4:10 AM EDT on October 17, 2017 (GMT -0400)
Greenville

Weather History for KGNR - December, 2012

Change the Weather History Date:

Wednesday, December 12, 2012

  Actual Average (KMLT) Record (KMLT)
Temperature  
Mean Temperature 21 °F -  
Max Temperature 28 °F 30 °F 58 °F (1911)
Min Temperature 14 °F 11 °F -22 °F (1906)
Degree Days  
Heating Degree Days 44    
Moisture  
Dew Point 14 °F    
Average Humidity 76    
Maximum Humidity 88    
Minimum Humidity 58    
Precipitation  
Precipitation 0.00 in - - ()
Sea Level Pressure  
Sea Level Pressure 30.26 in    
Wind  
Wind Speed 6 mph (NNW)    
Max Wind Speed 12 mph    
Max Gust Speed 18 mph    
Averages and records for this station are not official NWS values.
T = Trace of Precipitation, MM = Missing Value Source: NWS Daily Summary

Daily Weather History Graph

Daily Weather History Graph

Search for Another Location

Airport or City:

Trip Planner

Search our weather history database for the weather conditions in past years. The results will help you decide how hot, cold, wet, or windy it might be!

Date:

Astronomy

Dec. 12, 2012 Rise Set
Actual Time 7:09 AM EST 3:55 PM EST
Civil Twilight 6:35 AM EST 4:29 PM EST
Nautical Twilight 5:57 AM EST 5:06 PM EST
Astronomical Twilight 5:21 AM EST 5:42 PM EST
Moon 6:08 AM EST (12/12) 3:29 PM EST (12/12)
Length of Visible Light 9h 53m
Length of Day
8h 45m
Waning Crescent, 1% of the Moon is Illuminated
Dec 12
Waning Crescent
Dec 13
New
Dec 20
First Quarter
Dec 28
Full
Jan 4
Last Quarter

Hourly Weather History & Observations

Time (EST) Temp. Windchill Dew Point Humidity Pressure Visibility Wind Dir Wind Speed Gust Speed Precip Events Conditions
12:56 AM 14.0 °F 2.0 °F 10.0 °F 84% 30.11 in - North 9.2 mph - N/A   Unknown
1:56 AM 14.0 °F 2.9 °F 10.0 °F 84% 30.13 in - North 8.1 mph - N/A   Unknown
2:56 AM 14.0 °F 0.5 °F 10.0 °F 84% 30.16 in - North 11.5 mph 18.4 mph N/A   Unknown
3:56 AM 14.0 °F 3.9 °F 10.0 °F 84% 30.18 in - North 6.9 mph - N/A   Unknown
4:56 AM 14.0 °F 2.9 °F 10.0 °F 84% 30.19 in - North 8.1 mph - N/A   Unknown
5:56 AM 14.0 °F 6.5 °F 10.9 °F 88% 30.23 in - NNE 4.6 mph - N/A   Unknown
6:56 AM 14.0 °F 3.9 °F 10.9 °F 88% 30.24 in - North 6.9 mph - N/A   Unknown
7:56 AM 16.0 °F 6.3 °F 10.9 °F 81% 30.26 in - North 6.9 mph - N/A   Unknown
8:56 AM 19.0 °F 10.0 °F 12.0 °F 74% 30.28 in - NNW 6.9 mph - N/A   Unknown
9:56 AM 21.0 °F 12.4 °F 12.0 °F 68% 30.28 in - NNW 6.9 mph - N/A   Unknown
10:56 AM 23.0 °F 12.4 °F 12.9 °F 65% 30.27 in - NNW 10.4 mph - N/A   Unknown
11:56 AM 25.0 °F 17.1 °F 14.0 °F 63% 30.25 in - North 6.9 mph - N/A   Unknown
12:56 PM 27.0 °F 20.5 °F 15.1 °F 61% 30.25 in - NW 5.8 mph - N/A   Unknown
1:56 PM 28.0 °F 21.7 °F 15.1 °F 58% 30.25 in - NNW 5.8 mph - N/A   Unknown
2:56 PM 27.0 °F 23.0 °F 15.1 °F 61% 30.27 in - Variable 3.5 mph - N/A   Unknown
3:56 PM 26.1 °F 19.4 °F 16.0 °F 66% 30.30 in - NW 5.8 mph - N/A   Unknown
4:56 PM 24.1 °F - 17.1 °F 75% 30.32 in - Calm Calm - N/A   Unknown
5:56 PM 19.9 °F - 15.1 °F 81% 30.33 in - Calm Calm - N/A   Unknown
6:56 PM 23.0 °F - 17.1 °F 78% 30.33 in - Calm Calm - N/A   Unknown
7:56 PM 23.0 °F - 17.1 °F 78% 30.33 in - Calm Calm - N/A   Unknown
8:56 PM 26.1 °F - 18.0 °F 71% 30.32 in - Calm Calm - N/A   Unknown
9:56 PM 24.1 °F - 18.0 °F 77% 30.33 in - Calm Calm - N/A   Unknown
10:56 PM 21.9 °F - 17.1 °F 82% 30.34 in - Calm Calm - N/A   Unknown
11:56 PM 23.0 °F - 19.0 °F 85% 30.33 in - Calm Calm - N/A   Unknown